Flag for Spain Weather past 2 weeks in Las Palmas, Canary Islands, Spain

Now
82 °F

Passing clouds.


Feels Like: 86 °F
Forecast: 75 / 81 °F
Wind: 22 mph from Northeast

Location: Las Palmas De Gran Canaria / Gando

Current Time: Aug 31, 2015 at 2:22:20 PM

Latest Report: Aug 31, 2015 at 2:00 PM


Visibility: N/A

Pressure: 30.09 "Hg

Humidity: 66%

Dew point: 70 °F

Location of Las PalmasLocation

Historic Weather in Las Palmas — Graph

°F

Las Palmas temperature yesterday

Maximum temperature yesterday: 82 °F (at 1:00 PM)
Minimum temperature yesterday: 72 °F (at 6:30 AM)
Average temperature yesterday: 77 °F

Past Weeks' High & Low Weather Summary

 TemperatureHumidityPressure
High84 °F (Aug 17, 4:00 PM)89% (Aug 31, 4:00 AM)30.18 "Hg (Aug 31, 4:00 AM)
Low72 °F (Aug 17, 6:00 AM)45% (Aug 17, 4:30 PM)29.92 "Hg (Aug 29, 5:00 PM)
Average77 °F67%30.05 "Hg
* Reported Aug 16 1:00 PM — Aug 31 1:00 PM, Las Palmas, Weather by CustomWeather, © 2015

Note: Actual official high and low records may vary slightly from our data, if they occured in-between our weather recording intervals... More about our weather records

Advertising

Las Palmas weather history for previous 24 hours

 ConditionsComfort  
Time TempWeatherWind HumidityBarometerVisibility
1:00 PM
Mon, Aug 31
82 °FPassing clouds.16 mph62%30.09 "HgN/A
12:30 PM82 °FPassing clouds.15 mph62%30.12 "HgN/A
12:00 PM81 °FPassing clouds.13 mph66%30.12 "HgN/A
11:30 AM81 °FPassing clouds.14 mph66%30.12 "HgN/A
11:00 AM81 °FPassing clouds.17 mph66%30.09 "HgN/A
10:30 AM81 °FPassing clouds.20 mph62%30.09 "HgN/A
10:00 AM79 °FPassing clouds.16 mph70%30.07 "HgN/A
9:30 AM77 °FPassing clouds.15 mph74%30.07 "HgN/A
9:00 AM77 °FPassing clouds.16 mph69%30.07 "HgN/A
8:30 AM75 °FPassing clouds.14 mph74%30.07 "HgN/A
8:00 AM73 °FPassing clouds.17 mph78%30.04 "HgN/A
7:30 AM75 °FPassing clouds.20 mph74%30.04 "HgN/A
7:00 AM75 °FPassing clouds.15 mph69%30.01 "HgN/A
6:30 AM73 °FPassing clouds.15 mph78%30.01 "HgN/A
6:00 AM73 °FPassing clouds.16 mph78%30.04 "HgN/A
5:30 AM73 °FPassing clouds.15 mph83%30.04 "HgN/A
5:00 AM73 °FPassing clouds.14 mph83%30.04 "HgN/A
4:30 AM73 °FPassing clouds.14 mph89%30.07 "HgN/A
4:00 AM73 °FPassing clouds.13 mph89%30.07 "HgN/A
3:30 AM75 °FPassing clouds.15 mph83%30.07 "HgN/A
3:00 AM75 °FPassing clouds.13 mph78%30.07 "HgN/A
2:30 AM75 °FPassing clouds.14 mph78%30.07 "HgN/A
2:00 AM75 °FPassing clouds.15 mph78%30.07 "HgN/A
1:30 AM75 °FPassing clouds.17 mph78%30.07 "HgN/A
1:00 AM75 °FPassing clouds.14 mph78%30.07 "HgN/A
12:30 AM75 °FPassing clouds.15 mph78%30.07 "HgN/A
12:00 AM75 °FPassing clouds.16 mph78%30.04 "HgN/A
11:30 PM
Sun, Aug 30
75 °FPassing clouds.16 mph78%30.07 "HgN/A
11:00 PM75 °FPassing clouds.12 mph74%30.07 "HgN/A
10:30 PM75 °FPassing clouds.13 mph74%30.07 "HgN/A
10:00 PM75 °FPassing clouds.12 mph74%30.07 "HgN/A
9:30 PM77 °FPassing clouds.14 mph69%30.07 "HgN/A
8:30 PM77 °FPassing clouds.18 mph69%30.04 "HgN/A
8:00 PM77 °FPassing clouds.20 mph69%30.01 "HgN/A
7:30 PM79 °FPassing clouds.22 mph70%30.01 "HgN/A
7:00 PM79 °FPassing clouds.22 mph70%30.04 "HgN/A
6:30 PM81 °FPassing clouds.20 mph62%30.04 "HgN/A
6:00 PM81 °FPassing clouds.23 mph66%30.04 "HgN/A
5:30 PM81 °FPassing clouds.22 mph66%30.01 "HgN/A
5:00 PM81 °FPassing clouds.23 mph66%30.01 "HgN/A
4:30 PM81 °FPassing clouds.20 mph66%30.01 "HgN/A
4:00 PM81 °FPassing clouds.18 mph66%30.01 "HgN/A
3:30 PM81 °FPassing clouds.18 mph66%30.01 "HgN/A
3:00 PM81 °FPassing clouds.20 mph70%30.01 "HgN/A
2:30 PM81 °FPassing clouds.20 mph66%30.01 "HgN/A
2:00 PM81 °FPassing clouds.17 mph66%30.04 "HgN/A
Weather by CustomWeather, © 2015

See weather overviewHow to use our weather pages